Time,TemperatureF,DewpointF,PressureIn,WindDirection,WindDirectionDegrees,WindSpeedMPH,WindSpeedGustMPH,Humidity,HourlyPrecipIn,Conditions,Clouds,dailyrainin,SoftwareType,DateUTC
2013-11-24 08:35:00,22.0,13.7,30.70,North,352,0.0,0.0,70,0.00,CLR,,0.00,WeatherDisplay:10.37,2013-11-24 14:35:00,
2013-11-24 08:40:00,22.5,14.2,30.70,NNW,346,1.1,1.1,70,0.00,CLR,,0.00,WeatherDisplay:10.37,2013-11-24 14:40:00,
2013-11-24 08:45:00,22.6,13.6,30.70,North,5,3.5,3.5,68,0.00,CLR,,0.00,WeatherDisplay:10.37,2013-11-24 14:45:00,
2013-11-24 08:50:00,22.5,13.2,30.70,NNE,22,1.1,1.1,67,0.00,CLR,,0.00,WeatherDisplay:10.37,2013-11-24 14:50:00,
2013-11-24 08:55:00,22.7,13.7,30.70,NNE,17,0.0,0.0,68,0.00,CLR,,0.00,WeatherDisplay:10.37,2013-11-24 14:55:00,
2013-11-24 09:00:00,22.9,13.6,30.70,North,5,1.1,0.0,67,0.00,CLR,,0.00,WeatherDisplay:10.37,2013-11-24 15:00:00,
2013-11-24 09:05:00,23.1,14.1,30.70,North,9,0.0,0.0,68,0.00,CLR,,0.00,WeatherDisplay:10.37,2013-11-24 15:05:00,
2013-11-24 09:10:00,23.4,14.4,30.70,NNE,20,2.0,2.0,68,0.00,CLR,,0.00,WeatherDisplay:10.37,2013-11-24 15:10:00,
2013-11-24 09:15:00,23.6,14.2,30.70,NNE,26,1.1,1.1,67,0.00,CLR,,0.00,WeatherDisplay:10.37,2013-11-24 15:15:00,
2013-11-24 09:20:00,23.6,13.9,30.69,North,9,2.3,2.3,66,0.00,CLR,,0.00,WeatherDisplay:10.37,2013-11-24 15:20:00,
2013-11-24 09:25:00,23.6,13.9,30.69,North,5,2.3,2.3,66,0.00,CLR,,0.00,WeatherDisplay:10.37,2013-11-24 15:25:00,
2013-11-24 09:30:00,23.9,14.2,30.69,North,5,0.0,0.0,66,0.00,CLR,,0.00,WeatherDisplay:10.37,2013-11-24 15:30:00,
2013-11-24 09:35:00,24.2,14.1,30.69,NNE,27,1.1,1.1,65,0.00,CLR,,0.00,WeatherDisplay:10.37,2013-11-24 15:35:00,
2013-11-24 09:40:00,24.4,14.3,30.69,North,355,3.5,3.5,65,0.00,CLR,,0.00,WeatherDisplay:10.37,2013-11-24 15:40:00,
2013-11-24 09:45:00,24.6,14.1,30.69,North,5,0.0,0.1,64,0.00,CLR,,0.00,WeatherDisplay:10.37,2013-11-24 15:45:00,
2013-11-24 09:50:00,25.0,14.2,30.69,NNE,14,2.3,2.3,63,0.00,CLR,,0.00,WeatherDisplay:10.37,2013-11-24 15:50:00,
2013-11-24 09:55:00,25.1,14.3,30.69,North,11,3.5,3.5,63,0.00,CLR,,0.00,WeatherDisplay:10.37,2013-11-24 15:55:00,
2013-11-24 10:00:00,25.2,14.0,30.69,North,5,2.3,2.3,62,0.00,CLR,,0.00,WeatherDisplay:10.37,2013-11-24 16:00:00,
2013-11-24 10:05:00,25.5,13.9,30.68,NNE,17,2.3,2.3,61,0.00,CLR,,0.00,WeatherDisplay:10.37,2013-11-24 16:05:00,
2013-11-24 10:10:00,25.6,13.6,30.68,NNE,18,3.5,0.0,60,0.00,CLR,,0.00,WeatherDisplay:10.37,2013-11-24 16:10:00,
2013-11-24 10:16:00,26.0,14.4,30.68,NNE,19,0.0,0.0,61,0.00,CLR,,0.00,WeatherDisplay:10.37,2013-11-24 16:16:00,
2013-11-24 10:21:00,26.5,14.5,30.67,NNE,16,1.1,1.1,60,0.00,CLR,,0.00,WeatherDisplay:10.37,2013-11-24 16:21:00,
2013-11-24 10:26:00,26.8,14.8,30.67,NNE,17,0.0,0.0,60,0.00,CLR,,0.00,WeatherDisplay:10.37,2013-11-24 16:26:00,
2013-11-24 10:31:00,27.3,14.8,30.67,NNE,17,1.1,1.1,59,0.00,CLR,,0.00,WeatherDisplay:10.37,2013-11-24 16:31:00,
2013-11-24 10:36:00,27.1,13.9,30.67,NNE,21,3.5,3.5,57,0.00,CLR,,0.00,WeatherDisplay:10.37,2013-11-24 16:36:00,
2013-11-24 10:41:00,27.2,14.0,30.66,NNE,22,3.5,3.5,57,0.00,CLR,,0.00,WeatherDisplay:10.37,2013-11-24 16:41:00,
2013-11-24 10:46:00,27.1,13.9,30.66,NNE,12,2.3,0.0,57,0.00,CLR,,0.00,WeatherDisplay:10.37,2013-11-24 16:46:00,
2013-11-24 10:51:00,27.5,15.0,30.66,NNE,26,1.0,1.0,59,0.00,CLR,,0.00,WeatherDisplay:10.37,2013-11-24 16:51:00,
2013-11-24 10:56:00,27.7,14.4,30.65,NE,34,3.5,3.5,57,0.00,CLR,,0.00,WeatherDisplay:10.37,2013-11-24 16:56:00,
2013-11-24 11:01:00,27.9,14.2,30.65,NE,40,2.3,2.3,56,0.00,CLR,,0.00,WeatherDisplay:10.37,2013-11-24 17:01:00,
2013-11-24 11:06:00,28.3,14.2,30.64,NE,40,3.5,3.5,55,0.00,CLR,,0.00,WeatherDisplay:10.37,2013-11-24 17:06:00,
2013-11-24 11:11:00,28.7,15.0,30.64,ENE,69,4.6,4.6,56,0.00,CLR,,0.00,WeatherDisplay:10.37,2013-11-24 17:11:00,
2013-11-24 11:16:00,29.2,14.2,30.64,North,5,4.6,4.6,53,0.00,CLR,,0.00,WeatherDisplay:10.37,2013-11-24 17:16:00,
2013-11-24 11:21:00,28.9,14.3,30.63,ENE,57,1.1,1.1,54,0.00,CLR,,0.00,WeatherDisplay:10.37,2013-11-24 17:21:00,
2013-11-24 11:26:00,28.9,13.5,30.63,NNE,32,1.1,1.1,52,0.00,CLR,,0.00,WeatherDisplay:10.37,2013-11-24 17:26:00,
2013-11-24 11:31:00,28.9,13.5,30.63,NNE,32,1.1,0.0,52,0.00,CLR,,0.00,WeatherDisplay:10.37,2013-11-24 17:31:00,
2013-11-24 11:36:00,29.0,14.0,30.63,NE,40,1.1,1.1,53,0.00,CLR,,0.00,WeatherDisplay:10.37,2013-11-24 17:36:00,
2013-11-24 11:41:00,29.3,14.3,30.62,NNE,13,1.1,0.0,53,0.00,CLR,,0.00,WeatherDisplay:10.37,2013-11-24 17:41:00,
2013-11-24 11:46:00,29.3,13.8,30.62,ENE,78,0.0,0.0,52,0.00,CLR,,0.00,WeatherDisplay:10.37,2013-11-24 17:46:00,
2013-11-24 11:51:00,29.6,14.1,30.62,NE,40,2.0,2.0,52,0.00,CLR,,0.00,WeatherDisplay:10.37,2013-11-24 17:51:00,
2013-11-24 11:56:00,29.7,14.2,30.61,NNE,22,1.1,1.1,52,0.00,CLR,,0.00,WeatherDisplay:10.37,2013-11-24 17:56:00,
2013-11-24 12:01:00,29.8,14.3,30.62,NNE,25,2.3,2.3,52,0.00,CLR,,0.00,WeatherDisplay:10.37,2013-11-24 18:01:00,
2013-11-24 12:06:00,29.8,13.4,30.61,NNE,29,3.5,3.5,50,0.00,CLR,,0.00,WeatherDisplay:10.37,2013-11-24 18:06:00,
2013-11-24 12:11:00,29.9,13.0,30.62,NNE,30,3.5,3.5,49,0.00,CLR,,0.00,WeatherDisplay:10.37,2013-11-24 18:11:00,
2013-11-24 12:16:00,29.9,13.5,30.61,North,5,1.1,0.0,50,0.00,CLR,,0.00,WeatherDisplay:10.37,2013-11-24 18:16:00,
2013-11-24 12:21:00,30.2,14.2,30.61,East,84,0.0,0.0,51,0.00,CLR,,0.00,WeatherDisplay:10.37,2013-11-24 18:21:00,
2013-11-24 12:26:00,30.4,13.5,30.60,North,360,4.6,4.6,49,0.00,CLR,,0.00,WeatherDisplay:10.37,2013-11-24 18:26:00,
2013-11-24 12:31:00,30.4,13.5,30.61,NNE,12,2.3,2.3,49,0.00,CLR,,0.00,WeatherDisplay:10.37,2013-11-24 18:31:00,
2013-11-24 12:36:00,30.5,14.0,30.60,NE,48,1.1,0.0,50,0.00,CLR,,0.00,WeatherDisplay:10.37,2013-11-24 18:36:00,
2013-11-24 12:41:00,30.7,13.3,30.60,NE,37,2.0,2.0,48,0.00,CLR,,0.00,WeatherDisplay:10.37,2013-11-24 18:41:00,
2013-11-24 12:46:00,30.8,13.4,30.60,NE,37,0.0,0.0,48,0.00,CLR,,0.00,WeatherDisplay:10.37,2013-11-24 18:46:00,
2013-11-24 12:51:00,31.1,14.6,30.59,North,355,3.5,3.5,50,0.00,CLR,,0.00,WeatherDisplay:10.37,2013-11-24 18:51:00,
2013-11-24 12:56:00,31.1,13.2,30.59,North,355,2.3,2.3,47,0.00,CLR,,0.00,WeatherDisplay:10.37,2013-11-24 18:56:00,
2013-11-24 13:01:00,31.1,13.2,30.58,NE,52,3.5,3.5,47,0.00,CLR,,0.00,WeatherDisplay:10.37,2013-11-24 19:01:00,
2013-11-24 13:06:00,31.3,13.9,30.59,NNE,23,1.1,1.1,48,0.00,CLR,,0.00,WeatherDisplay:10.37,2013-11-24 19:06:00,
2013-11-24 13:11:00,31.3,13.4,30.58,North,10,0.0,0.0,47,0.00,CLR,,0.00,WeatherDisplay:10.37,2013-11-24 19:11:00,
2013-11-24 13:16:00,31.4,13.9,30.58,North,11,1.1,1.1,48,0.00,CLR,,0.00,WeatherDisplay:10.37,2013-11-24 19:16:00,
2013-11-24 13:21:00,31.6,14.1,30.58,North,11,0.0,0.0,48,0.00,CLR,,0.00,WeatherDisplay:10.37,2013-11-24 19:21:00,
2013-11-24 13:26:00,31.8,13.3,30.58,East,99,1.1,1.1,46,0.00,CLR,,0.00,WeatherDisplay:10.37,2013-11-24 19:26:00,
2013-11-24 13:31:00,31.9,13.4,30.57,NE,48,0.0,0.0,46,0.00,CLR,,0.00,WeatherDisplay:10.37,2013-11-24 19:31:00,
2013-11-24 13:36:00,31.8,12.3,30.57,North,5,0.0,0.0,44,0.00,CLR,,0.00,WeatherDisplay:10.37,2013-11-24 19:36:00,
2013-11-24 13:41:00,31.9,13.4,30.57,North,355,2.3,2.3,46,0.00,CLR,,0.00,WeatherDisplay:10.37,2013-11-24 19:41:00,
2013-11-24 13:46:00,31.9,12.9,30.57,NNE,28,2.3,2.3,45,0.00,CLR,,0.00,WeatherDisplay:10.37,2013-11-24 19:46:00,
2013-11-24 13:51:00,31.9,13.4,30.57,North,355,1.1,0.0,46,0.00,CLR,,0.00,WeatherDisplay:10.37,2013-11-24 19:51:00,
2013-11-24 13:56:00,32.0,13.0,30.56,East,95,0.0,0.0,45,0.00,CLR,,0.00,WeatherDisplay:10.37,2013-11-24 19:56:00,
2013-11-24 14:01:00,32.0,13.5,30.56,NE,34,0.0,0.0,46,0.00,CLR,,0.00,WeatherDisplay:10.37,2013-11-24 20:01:00,
2013-11-24 14:06:00,32.1,13.1,30.56,North,9,3.5,3.5,45,0.00,CLR,,0.00,WeatherDisplay:10.37,2013-11-24 20:06:00,
2013-11-24 14:11:00,31.9,12.4,30.56,North,9,2.3,2.3,44,0.00,CLR,,0.00,WeatherDisplay:10.37,2013-11-24 20:11:00,
2013-11-24 14:16:00,31.9,13.4,30.56,North,9,0.0,0.0,46,0.00,CLR,,0.00,WeatherDisplay:10.37,2013-11-24 20:16:00,
2013-11-24 14:21:00,31.9,13.4,30.56,NNE,15,0.0,0.0,46,0.00,CLR,,0.00,WeatherDisplay:10.37,2013-11-24 20:21:00,
2013-11-24 14:26:00,31.8,12.8,30.56,NNE,19,3.5,3.5,45,0.00,CLR,,0.00,WeatherDisplay:10.37,2013-11-24 20:26:00,
2013-11-24 14:31:00,31.6,13.2,30.56,NNE,17,0.0,0.0,46,0.00,CLR,,0.00,WeatherDisplay:10.37,2013-11-24 20:31:00,
2013-11-24 14:36:00,31.7,14.2,30.56,NNE,17,0.0,0.0,48,0.00,CLR,,0.00,WeatherDisplay:10.37,2013-11-24 20:36:00,
2013-11-24 14:41:00,31.7,13.3,30.56,NNE,20,0.0,0.0,46,0.00,CLR,,0.00,WeatherDisplay:10.37,2013-11-24 20:41:00,
2013-11-24 14:46:00,31.7,13.3,30.56,NNE,19,1.1,1.1,46,0.00,CLR,,0.00,WeatherDisplay:10.37,2013-11-24 20:46:00,
2013-11-24 14:51:00,31.3,12.4,30.56,NNE,16,0.0,0.0,45,0.00,CLR,,0.00,WeatherDisplay:10.37,2013-11-24 20:51:00,
2013-11-24 14:56:00,31.1,13.2,30.56,North,355,1.1,1.1,47,0.00,CLR,,0.00,WeatherDisplay:10.37,2013-11-24 20:56:00,
2013-11-24 15:02:00,31.1,13.2,30.56,North,355,0.0,0.0,47,0.00,CLR,,0.00,WeatherDisplay:10.37,2013-11-24 21:02:00,
2013-11-24 15:07:00,31.0,13.1,30.56,North,355,0.0,0.0,47,0.00,CLR,,0.00,WeatherDisplay:10.37,2013-11-24 21:07:00,
2013-11-24 15:12:00,31.0,13.6,30.56,North,355,0.0,0.0,48,0.00,CLR,,0.00,WeatherDisplay:10.37,2013-11-24 21:12:00,
2013-11-24 15:17:00,31.0,13.6,30.55,North,355,0.0,0.0,48,0.00,CLR,,0.00,WeatherDisplay:10.37,2013-11-24 21:17:00,
2013-11-24 15:22:00,31.0,13.6,30.56,North,355,0.0,0.0,48,0.00,CLR,,0.00,WeatherDisplay:10.37,2013-11-24 21:22:00,
2013-11-24 15:27:00,30.9,13.0,30.55,North,355,0.0,0.0,47,0.00,CLR,,0.00,WeatherDisplay:10.37,2013-11-24 21:27:00,
2013-11-24 15:32:00,30.8,12.9,30.55,North,355,0.0,0.0,47,0.00,CLR,,0.00,WeatherDisplay:10.37,2013-11-24 21:32:00,
2013-11-24 15:37:00,30.7,12.8,30.55,North,355,0.0,0.0,47,0.00,CLR,,0.00,WeatherDisplay:10.37,2013-11-24 21:37:00,
2013-11-24 15:42:00,30.7,13.3,30.55,North,360,0.0,0.0,48,0.00,CLR,,0.00,WeatherDisplay:10.37,2013-11-24 21:42:00,
2013-11-24 15:47:00,30.6,13.2,30.55,North,360,0.0,0.0,48,0.00,CLR,,0.00,WeatherDisplay:10.37,2013-11-24 21:47:00,
2013-11-24 15:52:00,30.6,13.2,30.55,North,360,0.0,0.0,48,0.00,CLR,,0.00,WeatherDisplay:10.37,2013-11-24 21:52:00,
2013-11-24 15:57:00,30.6,13.7,30.55,North,360,0.0,0.0,49,0.00,CLR,,0.00,WeatherDisplay:10.37,2013-11-24 21:57:00,
2013-11-24 16:02:00,30.6,13.2,30.55,North,360,0.0,0.0,48,0.00,CLR,,0.00,WeatherDisplay:10.37,2013-11-24 22:02:00,
2013-11-24 16:07:00,30.5,13.6,30.55,North,360,0.0,0.0,49,0.00,CLR,,0.00,WeatherDisplay:10.37,2013-11-24 22:07:00,
2013-11-24 16:12:00,30.5,14.0,30.54,North,360,0.0,0.0,50,0.00,CLR,,0.00,WeatherDisplay:10.37,2013-11-24 22:12:00,
2013-11-24 16:17:00,30.5,14.0,30.54,North,360,0.0,0.0,50,0.00,CLR,,0.00,WeatherDisplay:10.37,2013-11-24 22:17:00,
2013-11-24 16:22:00,30.4,14.0,30.55,North,360,0.0,0.0,50,0.00,CLR,,0.00,WeatherDisplay:10.37,2013-11-24 22:22:00,
2013-11-24 16:27:00,30.3,13.9,30.54,North,360,0.0,0.0,50,0.00,CLR,,0.00,WeatherDisplay:10.37,2013-11-24 22:27:00,
2013-11-24 16:32:00,30.3,13.4,30.54,North,360,0.0,0.0,49,0.00,CLR,,0.00,WeatherDisplay:10.37,2013-11-24 22:32:00,
2013-11-24 16:37:00,30.2,13.8,30.55,North,360,0.0,0.0,50,0.00,CLR,,0.00,WeatherDisplay:10.37,2013-11-24 22:37:00,
2013-11-24 16:42:00,30.1,14.1,30.54,North,360,0.0,0.0,51,0.00,CLR,,0.00,WeatherDisplay:10.37,2013-11-24 22:42:00,
2013-11-24 16:47:00,30.0,14.9,30.54,North,360,0.0,0.0,53,0.00,CLR,,0.00,WeatherDisplay:10.37,2013-11-24 22:47:00,
2013-11-24 16:52:00,29.9,14.4,30.54,North,360,0.0,0.0,52,0.00,CLR,,0.00,WeatherDisplay:10.37,2013-11-24 22:52:00,
2013-11-24 16:57:00,29.9,13.9,30.54,North,360,0.0,0.0,51,0.00,CLR,,0.00,WeatherDisplay:10.37,2013-11-24 22:57:00,
2013-11-24 17:02:00,29.9,15.7,30.54,North,360,0.0,0.0,55,0.00,CLR,,0.00,WeatherDisplay:10.37,2013-11-24 23:02:00,
2013-11-24 17:07:00,29.8,16.0,30.54,North,360,0.0,0.0,56,0.00,CLR,,0.00,WeatherDisplay:10.37,2013-11-24 23:07:00,
2013-11-24 17:12:00,29.6,14.1,30.54,North,360,0.0,0.0,52,0.00,CLR,,0.00,WeatherDisplay:10.37,2013-11-24 23:12:00,
2013-11-24 17:17:00,29.5,15.3,30.54,North,360,0.0,0.0,55,0.00,CLR,,0.00,WeatherDisplay:10.37,2013-11-24 23:17:00,
2013-11-24 17:22:00,29.3,15.5,30.54,North,360,0.0,0.0,56,0.00,CLR,,0.00,WeatherDisplay:10.37,2013-11-24 23:22:00,
2013-11-24 17:27:00,29.2,14.2,30.53,North,360,0.0,0.0,53,0.00,CLR,,0.00,WeatherDisplay:10.37,2013-11-24 23:27:00,
2013-11-24 17:32:00,29.2,14.6,30.53,North,360,0.0,0.0,54,0.00,CLR,,0.00,WeatherDisplay:10.37,2013-11-24 23:32:00,
2013-11-24 17:37:00,29.1,14.5,30.53,North,360,0.0,0.0,54,0.00,CLR,,0.00,WeatherDisplay:10.37,2013-11-24 23:37:00,
2013-11-24 17:42:00,29.0,14.4,30.53,North,360,0.0,0.0,54,0.00,CLR,,0.00,WeatherDisplay:10.37,2013-11-24 23:42:00,
2013-11-24 17:47:00,29.1,14.5,30.53,North,360,0.0,0.0,54,0.00,CLR,,0.00,WeatherDisplay:10.37,2013-11-24 23:47:00,
2013-11-24 17:52:00,29.1,14.9,30.53,North,360,0.0,0.0,55,0.00,CLR,,0.00,WeatherDisplay:10.37,2013-11-24 23:52:00,
2013-11-24 17:57:00,29.1,14.9,30.53,North,360,0.0,0.0,55,0.00,CLR,,0.00,WeatherDisplay:10.37,2013-11-24 23:57:00,
2013-11-24 18:02:00,29.1,14.9,30.53,North,360,0.0,0.0,55,0.00,CLR,,0.00,WeatherDisplay:10.37,2013-11-25 00:02:00,
2013-11-24 18:07:00,29.0,14.8,30.53,North,360,0.0,0.0,55,0.00,CLR,,0.00,WeatherDisplay:10.37,2013-11-25 00:07:00,
2013-11-24 18:12:00,29.0,14.8,30.53,North,360,0.0,0.0,55,0.00,CLR,,0.00,WeatherDisplay:10.37,2013-11-25 00:12:00,
2013-11-24 18:17:00,29.0,14.8,30.53,North,360,0.0,0.0,55,0.00,CLR,,0.00,WeatherDisplay:10.37,2013-11-25 00:17:00,
2013-11-24 18:22:00,29.0,14.8,30.52,North,360,0.0,0.0,55,0.00,CLR,,0.00,WeatherDisplay:10.37,2013-11-25 00:22:00,
2013-11-24 18:27:00,28.9,14.7,30.52,North,360,0.0,0.0,55,0.00,CLR,,0.00,WeatherDisplay:10.37,2013-11-25 00:27:00,
2013-11-24 18:32:00,28.9,14.7,30.52,North,360,0.0,0.0,55,0.00,CLR,,0.00,WeatherDisplay:10.37,2013-11-25 00:32:00,
2013-11-24 18:37:00,28.9,14.7,30.53,North,360,0.0,0.0,55,0.00,CLR,,0.00,WeatherDisplay:10.37,2013-11-25 00:37:00,
2013-11-24 18:42:00,28.8,14.6,30.52,North,360,0.0,0.0,55,0.00,CLR,,0.00,WeatherDisplay:10.37,2013-11-25 00:42:00,
2013-11-24 18:47:00,28.8,15.1,30.52,North,360,0.0,0.0,56,0.00,CLR,,0.00,WeatherDisplay:10.37,2013-11-25 00:47:00,
2013-11-24 18:52:00,28.8,15.1,30.52,North,360,0.0,0.0,56,0.00,CLR,,0.00,WeatherDisplay:10.37,2013-11-25 00:52:00,
2013-11-24 18:57:00,28.8,15.1,30.52,North,360,0.0,0.0,56,0.00,CLR,,0.00,WeatherDisplay:10.37,2013-11-25 00:57:00,
2013-11-24 19:02:00,28.7,15.4,30.52,North,360,0.0,0.0,57,0.00,CLR,,0.00,WeatherDisplay:10.37,2013-11-25 01:02:00,
2013-11-24 19:07:00,28.7,15.4,30.52,North,360,0.0,0.0,57,0.00,CLR,,0.00,WeatherDisplay:10.37,2013-11-25 01:07:00,
2013-11-24 19:12:00,28.6,15.3,30.51,North,360,0.0,0.0,57,0.00,CLR,,0.00,WeatherDisplay:10.37,2013-11-25 01:12:00,
2013-11-24 19:17:00,28.6,15.3,30.51,North,360,0.0,0.0,57,0.00,CLR,,0.00,WeatherDisplay:10.37,2013-11-25 01:17:00,
2013-11-24 19:22:00,28.6,15.3,30.51,North,360,0.0,0.0,57,0.00,CLR,,0.00,WeatherDisplay:10.37,2013-11-25 01:22:00,
2013-11-24 19:27:00,28.6,15.3,30.51,North,360,0.0,0.0,57,0.00,CLR,,0.00,WeatherDisplay:10.37,2013-11-25 01:27:00,
2013-11-24 19:32:00,28.6,15.7,30.51,North,360,0.0,0.0,58,0.00,CLR,,0.00,WeatherDisplay:10.37,2013-11-25 01:32:00,
2013-11-24 19:37:00,28.6,15.7,30.51,North,360,0.0,0.0,58,0.00,CLR,,0.00,WeatherDisplay:10.37,2013-11-25 01:37:00,
2013-11-24 19:42:00,28.5,15.6,30.51,North,360,0.0,0.0,58,0.00,CLR,,0.00,WeatherDisplay:10.37,2013-11-25 01:42:00,
2013-11-24 19:47:00,28.5,16.0,30.51,North,360,0.0,0.0,59,0.00,CLR,,0.00,WeatherDisplay:10.37,2013-11-25 01:47:00,
2013-11-24 19:52:00,28.5,15.6,30.51,North,360,0.0,0.0,58,0.00,CLR,,0.00,WeatherDisplay:10.37,2013-11-25 01:52:00,
2013-11-24 19:57:00,28.5,16.0,30.51,North,360,0.0,0.0,59,0.00,CLR,,0.00,WeatherDisplay:10.37,2013-11-25 01:57:00,
2013-11-24 20:03:00,28.5,16.0,30.51,North,360,0.0,0.0,59,0.00,CLR,,0.00,WeatherDisplay:10.37,2013-11-25 02:03:00,
2013-11-24 20:08:00,28.5,16.0,30.51,North,360,0.0,0.0,59,0.00,CLR,,0.00,WeatherDisplay:10.37,2013-11-25 02:08:00,
2013-11-24 20:13:00,28.5,16.4,30.51,North,360,0.0,0.0,60,0.00,CLR,,0.00,WeatherDisplay:10.37,2013-11-25 02:13:00,
2013-11-24 20:18:00,28.5,16.4,30.51,North,360,0.0,0.0,60,0.00,CLR,,0.00,WeatherDisplay:10.37,2013-11-25 02:18:00,
2013-11-24 20:23:00,28.5,16.4,30.51,North,360,0.0,0.0,60,0.00,CLR,,0.00,WeatherDisplay:10.37,2013-11-25 02:23:00,
2013-11-24 20:28:00,28.5,16.4,30.51,North,360,0.0,0.0,60,0.00,CLR,,0.00,WeatherDisplay:10.37,2013-11-25 02:28:00,
2013-11-24 20:33:00,28.5,16.7,30.51,North,360,0.0,0.0,61,0.00,CLR,,0.00,WeatherDisplay:10.37,2013-11-25 02:33:00,
2013-11-24 20:38:00,28.5,16.7,30.51,North,360,0.0,0.0,61,0.00,CLR,,0.00,WeatherDisplay:10.37,2013-11-25 02:38:00,
2013-11-24 20:43:00,28.5,16.7,30.51,North,360,0.0,0.0,61,0.00,CLR,,0.00,WeatherDisplay:10.37,2013-11-25 02:43:00,
2013-11-24 20:48:00,28.5,16.7,30.51,North,360,0.0,0.0,61,0.00,CLR,,0.00,WeatherDisplay:10.37,2013-11-25 02:48:00,
2013-11-24 20:53:00,28.5,16.7,30.51,North,360,0.0,0.0,61,0.00,CLR,,0.00,WeatherDisplay:10.37,2013-11-25 02:53:00,
2013-11-24 20:58:00,28.5,16.4,30.52,North,360,0.0,0.0,60,0.00,CLR,,0.00,WeatherDisplay:10.37,2013-11-25 02:58:00,
2013-11-24 21:03:00,28.5,16.7,30.52,North,360,0.0,0.0,61,0.00,CLR,,0.00,WeatherDisplay:10.37,2013-11-25 03:03:00,
2013-11-24 21:08:00,28.6,16.8,30.51,North,360,0.0,0.0,61,0.00,CLR,,0.00,WeatherDisplay:10.37,2013-11-25 03:08:00,
2013-11-24 21:13:00,28.6,16.8,30.51,North,360,0.0,0.0,61,0.00,CLR,,0.00,WeatherDisplay:10.37,2013-11-25 03:13:00,
2013-11-24 21:18:00,28.6,16.8,30.51,North,360,0.0,0.0,61,0.00,CLR,,0.00,WeatherDisplay:10.37,2013-11-25 03:18:00,
2013-11-24 21:23:00,28.6,16.8,30.51,North,360,0.0,0.0,61,0.00,CLR,,0.00,WeatherDisplay:10.37,2013-11-25 03:23:00,
2013-11-24 21:28:00,28.7,16.9,30.51,North,360,0.0,0.0,61,0.00,CLR,,0.00,WeatherDisplay:10.37,2013-11-25 03:28:00,
2013-11-24 21:33:00,28.7,16.9,30.50,North,360,0.0,0.0,61,0.00,CLR,,0.00,WeatherDisplay:10.37,2013-11-25 03:33:00,
2013-11-24 21:38:00,28.7,17.3,30.50,North,360,0.0,0.0,62,0.00,CLR,,0.00,WeatherDisplay:10.37,2013-11-25 03:38:00,
2013-11-24 21:43:00,28.7,17.3,30.50,North,360,0.0,0.0,62,0.00,CLR,,0.00,WeatherDisplay:10.37,2013-11-25 03:43:00,
2013-11-24 21:48:00,28.7,17.3,30.49,NE,49,1.1,0.0,62,0.00,CLR,,0.00,WeatherDisplay:10.37,2013-11-25 03:48:00,
2013-11-24 21:53:00,28.7,17.3,30.49,ENE,63,0.0,0.0,62,0.00,CLR,,0.00,WeatherDisplay:10.37,2013-11-25 03:53:00,
2013-11-24 21:58:00,28.8,17.4,30.49,East,81,0.0,0.0,62,0.00,CLR,,0.00,WeatherDisplay:10.37,2013-11-25 03:58:00,
2013-11-24 22:03:00,28.8,17.4,30.49,East,81,0.0,0.0,62,0.00,CLR,,0.00,WeatherDisplay:10.37,2013-11-25 04:03:00,
2013-11-24 22:08:00,28.8,17.4,30.48,East,79,1.1,0.0,62,0.00,CLR,,0.00,WeatherDisplay:10.37,2013-11-25 04:08:00,
2013-11-24 22:13:00,28.8,17.8,30.48,East,79,0.0,0.0,63,0.00,CLR,,0.00,WeatherDisplay:10.37,2013-11-25 04:13:00,
2013-11-24 22:18:00,28.7,17.7,30.48,East,79,0.0,0.0,63,0.00,CLR,,0.00,WeatherDisplay:10.37,2013-11-25 04:18:00,
2013-11-24 22:23:00,28.8,17.4,30.48,East,79,0.0,0.0,62,0.00,CLR,,0.00,WeatherDisplay:10.37,2013-11-25 04:23:00,
2013-11-24 22:28:00,28.8,17.4,30.47,East,79,0.0,0.0,62,0.00,CLR,,0.00,WeatherDisplay:10.37,2013-11-25 04:28:00,
2013-11-24 22:33:00,28.8,17.8,30.48,East,79,0.0,0.0,63,0.00,CLR,,0.00,WeatherDisplay:10.37,2013-11-25 04:33:00,
2013-11-24 22:38:00,28.8,17.4,30.48,East,79,0.0,0.0,62,0.00,CLR,,0.00,WeatherDisplay:10.37,2013-11-25 04:38:00,
2013-11-24 22:43:00,28.8,17.8,30.47,East,79,0.0,0.0,63,0.00,CLR,,0.00,WeatherDisplay:10.37,2013-11-25 04:43:00,
2013-11-24 22:48:00,28.8,17.8,30.47,East,79,0.0,0.0,63,0.00,CLR,,0.00,WeatherDisplay:10.37,2013-11-25 04:48:00,
2013-11-24 22:53:00,28.8,17.8,30.47,East,79,0.0,0.0,63,0.00,CLR,,0.00,WeatherDisplay:10.37,2013-11-25 04:53:00,
2013-11-24 22:58:00,28.8,17.8,30.47,East,79,0.0,0.0,63,0.00,CLR,,0.00,WeatherDisplay:10.37,2013-11-25 04:58:00,
2013-11-24 23:01:00,28.8,17.8,30.47,East,79,0.0,0.0,63,0.00,CLR,,0.00,WeatherDisplay:10.37,2013-11-25 05:01:00,
2013-11-24 23:06:00,28.8,17.8,30.47,East,79,0.0,0.0,63,0.00,CLR,,0.00,WeatherDisplay:10.37,2013-11-25 05:06:00,
2013-11-24 23:11:00,28.8,17.8,30.46,East,80,0.0,0.0,63,0.00,CLR,,0.00,WeatherDisplay:10.37,2013-11-25 05:11:00,
2013-11-24 23:16:00,28.8,17.8,30.46,East,80,0.0,0.0,63,0.00,CLR,,0.00,WeatherDisplay:10.37,2013-11-25 05:16:00,
2013-11-24 23:21:00,28.9,18.2,30.46,East,80,0.0,0.0,64,0.00,CLR,,0.00,WeatherDisplay:10.37,2013-11-25 05:21:00,
2013-11-24 23:26:00,28.9,18.2,30.45,East,80,0.0,0.0,64,0.00,CLR,,0.00,WeatherDisplay:10.37,2013-11-25 05:26:00,
2013-11-24 23:31:00,28.9,18.2,30.45,East,80,0.0,0.0,64,0.00,CLR,,0.00,WeatherDisplay:10.37,2013-11-25 05:31:00,
2013-11-24 23:36:00,28.9,18.2,30.45,East,80,0.0,0.1,64,0.00,CLR,,0.00,WeatherDisplay:10.37,2013-11-25 05:36:00,
2013-11-24 23:41:00,28.9,18.2,30.44,East,81,0.0,0.0,64,0.00,CLR,,0.00,WeatherDisplay:10.37,2013-11-25 05:41:00,
2013-11-24 23:47:00,28.9,18.2,30.44,East,88,0.0,0.0,64,0.00,CLR,,0.00,WeatherDisplay:10.37,2013-11-25 05:47:00,
2013-11-24 23:51:00,28.9,18.2,30.44,East,87,1.0,1.0,64,0.00,CLR,,0.00,WeatherDisplay:10.37,2013-11-25 05:51:00,
2013-11-24 23:57:00,29.0,18.0,30.43,ENE,75,2.3,0.0,63,0.00,CLR,,0.00,WeatherDisplay:10.37,2013-11-25 05:57:00,